* Astronomy

Members Login
Post Info TOPIC: SL-4 rocket body re-entry


L

Posts: 131433
Date:
RE: SL-4 rocket body re-entry
Permalink  
 


Update: 
The SL-4 rocket body re-entered the Earths atmosphere on the 3rd August, 2012 @ 22:53 GMT ± 1 minute.

Inclination: 51.65°
Revolution Number:  35
Predicted Location:   21°N, 36°W



__________________


L

Posts: 131433
Date:
Permalink  
 

Update:
The SL-4 rocket body is predicted to re-enter the Earths atmosphere on the 3rd August, 2012 @ 23:00 GMT ± 2 hours.

SL-4 RB
1 38739U 12042B   12216.76765113  .10131927  12507-4  28654-3 0   180
2 38739 051.6465 243.6346 0008894 099.5942 261.6411 16.44756373   315

Period:       88.41 minutes
Inclination: 51.65°
Apogee:     210 km
Perigee:     182 km 
Revolution Number:  35
Predicted Location:   0.1°N, 51.8°W



__________________


L

Posts: 131433
Date:
Permalink  
 

A SL-4 rocket body that was launched on the 1st August, 2012, from the Baikonur Cosmodrome in Kazakhstan, for the Progress M-16M/48P mission, is predicted to re-enter the Earths atmosphere on the 3rd August, 2012 @ 23:00 GMT ± 5 hours.

SL-4 RB
1 38739U 12042B   12216.58506315  .07204500  12405-4  49274-3 0   178
2 38739 051.6346 244.6803 0010975 090.4212 269.9950 16.40233475   289

Period:       88.41 minutes
Inclination: 51.63°
Apogee:     210 km
Perigee:     182 km 
Revolution Number:  36
Predicted Location:   2.7°N, 50°W



__________________
Page 1 of 1  sorted by
 
Quick Reply

Please log in to post quick replies.



Create your own FREE Forum
Report Abuse
Powered by ActiveBoard